Location: Freistadt
(48.5112°N, 14.5013°E)
Time: 16:06:16
(UTC+02:00)

CUBEBUG 2 - Pass Details

Date: 05 April 2023
Orbit: 577 x 685 km, 97.8° (Epoch: 02 June)

Event Time Altitude Azimuth Distance (km) Brightness Sun altitude
Rises 03:29:13 0° 15° (NNE) 3,062 ? -27.1°
Reaches altitude 10° 03:31:31 10° 18° (NNE) 2,134 ? -26.8°
Enters shadow 03:36:08 68° 98° (E) 727 ? -26.3°
